User: anonymous   Login
Location: Aalen
(48.8330°N, 10.1000°E)
Time: 13:19:04
(UTC+02:00)
Language:

YUBILEINY - Orbit

View from above orbital plane
View from above orbital plane
View from above satellite
View from above satellite

Ground track
Ground track

The orbit data is extracted from the following two-line orbital elements,

1 32953U 08025A   21263.03698242  .00000021  00000-0  80971-4 0  9997
2 32953  82.5093 352.1095 0020592 129.8374 230.4519 12.43104641604738
Epoch (UTC): 20 September 2021 00:53:15
Eccentricity: 0.0020592
inclination: 82.5093°
perigee height: 1477 km
apogee height: 1509 km
right ascension of ascending node: 352.1095°
argument of perigee: 129.8374°
revolutions per day: 12.43104641
mean anomaly at epoch: 230.4519°
orbit number at epoch: 60473

The dashed part of the orbit path shows where the satellite is in the earth's shadow,  

DLR